E1763 Weather Reports


Display with metric or nautical units.
time (UTC)temp
F
wind
direction
speed
MPH
gust
MPH
rain 1hr
in
rain 24hr
in
rain mn
in
humidity
%
barometer
mb
20260903200026 62 233 0.0 0.0 0.00 0.49 0.45 97 1007.7
20260903194522 61 207 0.0 0.0 0.00 0.49 0.45 97 1007.8
20260903193026 61 240 0.0 0.0 0.00 0.49 0.45 97 1008.1
20260903191515 61 221 0.0 0.0 0.00 0.49 0.45 97 1008.1
20260903190013 61 202 0.0 0.0 0.00 0.49 0.45 97 1008.2
20260903184510 61 198 0.0 0.0 0.01 0.49 0.45 97 1008.3
20260903183009 61 194 0.0 0.0 0.02 0.49 0.45 97 1008.3
20260903181512 61 259 0.0 0.0 0.03 0.49 0.45 97 1008.4
20260903180015 59 221 0.0 0.0 0.03 0.49 0.45 96 1008.5
20260903174504 60 226 0.0 0.0 0.02 0.48 0.44 97 1008.5
20260903173004 60 269 0.0 0.0 0.01 0.47 0.43 97 1008.4
20260903171506 60 293 0.0 0.0 0.00 0.46 0.42 97 1008.3
20260903170005 60 261 0.0 0.0 0.00 0.46 0.42 97 1008.2
20260903164504 60 258 0.0 0.0 0.00 0.46 0.42 97 1008.1
20260903163002 60 192 0.0 0.0 0.01 0.46 0.42 97 1008.1
20260903161600 60 265 0.0 0.0 0.01 0.46 0.42 97 1008.0
20260903160100 60 265 0.0 0.0 0.01 0.46 0.42 96 1008.0
20260903154601 60 225 0.0 0.0 0.01 0.46 0.42 96 1008.0
20260903153059 60 225 0.0 0.0 0.00 0.45 0.41 96 1008.0
20260903151559 60 225 0.0 0.0 0.00 0.45 0.41 96 1007.8
20260903150058 60 225 0.0 0.0 0.00 0.45 0.41 96 1007.8
20260903144606 60 225 0.0 0.0 0.00 0.45 0.41 96 1007.8
20260903143056 60 225 0.0 0.0 0.01 0.45 0.41 96 1007.8
20260903141557 59 225 0.0 0.0 0.03 0.45 0.41 96 1007.8
20260903140056 59 241 0.0 3.0 0.05 0.45 0.41 96 1007.8
20260903134556 59 227 0.0 0.0 0.05 0.44 0.40 96 1007.7
20260903133059 60 219 0.0 0.0 0.06 0.44 0.40 96 1007.5
20260903131553 60 202 0.0 0.0 0.07 0.42 0.38 96 1007.4
20260903130053 60 202 0.0 0.0 0.07 0.40 0.36 96 1007.3
20260903124605 60 202 0.0 0.0 0.08 0.39 0.35 96 1007.4
20260903123051 60 202 0.0 0.0 0.09 0.38 0.34 96 1007.3
20260903121549 60 202 0.0 0.0 0.06 0.34 0.30 96 1007.4
20260903120058 60 198 0.0 0.0 0.06 0.33 0.28 96 1007.6
20260903114546 60 192 1.0 4.0 0.05 0.31 0.27 96 1007.6
20260903113115 60 177 0.0 0.0 0.05 0.28 0.25 96 1007.8
20260903111545 59 184 0.0 0.0 0.06 0.28 0.24 95 1007.8
20260903110041 59 215 0.0 0.0 0.08 0.27 0.23 95 1007.9
20260903104553 59 203 0.0 0.0 0.09 0.26 0.22 95 1008.2
20260903103036 59 199 0.0 0.0 0.09 0.24 0.20 95 1008.2
20260903101530 59 191 0.0 0.0 0.08 0.22 0.18 95 1008.3
20260903100035 59 197 0.0 0.0 0.05 0.19 0.15 95 1008.4
20260903094544 59 181 0.0 0.0 0.04 0.18 0.13 95 1008.5
20260903093025 59 182 1.0 5.0 0.03 0.16 0.11 95 1008.7
20260903091528 59 158 0.0 0.0 0.04 0.15 0.10 95 1008.9
20260903090020 59 177 0.0 0.0 0.05 0.15 0.10 95 1009.1
20260903084518 59 172 0.0 0.0 0.05 0.14 0.09 94 1009.1
20260903083018 59 189 0.0 1.0 0.04 0.13 0.08 94 1009.2
20260903081517 59 149 0.0 0.0 0.04 0.11 0.06 94 1009.3
20260903080016 59 180 0.0 1.0 0.05 0.10 0.05 94 1009.3
20260903074511 59 178 0.0 0.0 0.05 0.09 0.04 94 1009.4
20260903073013 58 158 0.0 0.0 0.05 0.09 0.04 93 1009.5
20260903071509 58 178 0.0 0.0 0.04 0.07 0.02 93 1009.5
20260903070006 59 163 0.0 0.0 0.03 0.05 0.00 92 1009.6
20260903064505 59 198 0.0 0.0 0.02 0.04 0.04 92 1009.6
20260903063009 58 163 0.0 0.0 0.03 0.04 0.04 92 1009.7
20260903061507 58 113 0.0 0.0 0.02 0.03 0.03 91 1009.8
20260903060003 59 163 0.0 0.0 0.01 0.02 0.02 90 1010.0
20260903054503 59 178 0.0 0.0 0.01 0.03 0.02 88 1010.3
20260903053002 60 196 0.0 0.0 0.00 0.02 0.01 86 1010.4
20260903051502 61 188 0.0 1.0 0.00 0.02 0.01 82 1010.4
20260903050001 61 186 0.0 0.0 0.00 0.02 0.01 81 1010.4
20260903044602 61 180 0.0 0.0 0.00 0.02 0.01 81 1010.4
20260903043207 61 204 0.0 0.0 0.00 0.02 0.01 81 1010.3
20260903041606 61 202 0.0 0.0 0.00 0.02 0.01 83 1010.3
20260903034558 61 206 0.0 0.0 0.00 0.02 0.01 82 1010.1
20260903033059 62 204 0.0 0.0 0.00 0.02 0.01 82 1010.0
20260903031559 62 223 0.0 0.0 0.00 0.02 0.01 81 1010.0
20260903030057 62 195 0.0 0.0 0.00 0.02 0.01 81 1010.0
20260903024559 62 213 0.0 0.0 0.00 0.02 0.01 80 1010.1
20260903023056 62 259 0.0 1.0 0.00 0.02 0.01 79 1010.2
20260903021556 63 193 0.0 0.0 0.00 0.02 0.01 78 1010.2
20260903020054 63 215 0.0 0.0 0.00 0.02 0.01 77 1010.3
20260903014555 64 213 0.0 0.0 0.00 0.02 0.01 75 1010.4
20260903013105 64 214 0.0 0.0 0.00 0.02 0.01 73 1010.4
20260903011552 64 190 0.0 0.0 0.00 0.02 0.01 73 1010.3
20260903010053 65 200 0.0 0.0 0.00 0.02 0.01 72 1010.5
20260903004553 65 210 0.0 0.0 0.00 0.02 0.01 70 1010.6
20260903003055 66 196 0.0 0.0 0.00 0.02 0.01 69 1010.5
20260903001551 66 233 0.0 0.0 0.00 0.02 0.01 69 1010.4
20260903000050 66 215 0.0 0.0 0.00 0.02 0.01 68 1010.4
20260902234607 66 209 0.0 0.0 0.00 0.02 0.01 66 1010.5
20260902233049 68 202 0.0 0.0 0.00 0.02 0.01 63 1010.6
20260902231552 69 220 0.0 0.0 0.00 0.02 0.01 61 1010.6
20260902230048 70 238 0.0 0.0 0.00 0.02 0.01 63 1010.7
20260902224605 70 223 0.0 0.0 0.00 0.02 0.01 62 1010.8
20260902223143 70 224 0.0 0.0 0.00 0.02 0.01 61 1010.8
20260902221542 70 188 0.0 0.0 0.00 0.02 0.01 66 1011.1
20260902220046 70 215 0.0 0.0 0.00 0.02 0.01 67 1011.2
20260902214540 70 170 0.0 0.0 0.00 0.02 0.01 67 1011.3
20260902213040 70 219 0.0 0.0 0.00 0.02 0.01 67 1011.3
20260902211540 70 218 0.0 0.0 0.00 0.02 0.01 66 1011.2
20260902210037 69 213 0.0 0.0 0.00 0.02 0.01 68 1011.2
20260902204540 69 223 0.0 0.0 0.00 0.02 0.01 69 1011.2
20260902203037 69 186 0.0 0.0 0.00 0.02 0.01 70 1011.3
20260902201547 69 220 0.0 0.0 0.00 0.02 0.01 70 1011.3